APSTAR 6D (45863 NORAD) Tracking and Keplerian Element Data

This shows tracking and keplerian element data for the satellite.

Feedback or suggestion? Click here.




ElementValue
Catalog45863
NameAPSTAR 6D
Epoch Orbit46
Epoch Day224.92663897
Epoch Year2020
RAAN256.3307
Inclination0.0708
Eccentricity0.0002281
Argument of Perigee222.5038
Mean Anonmoly310.1432
Mean Motion1.00271256
Decay Rate-3.13E-06
L11 45863U 20045A 20224.92663897 -.00000313 00000-0 00000+0 0 9994
L22 45863 0.0708 256.3307 0002281 222.5038 310.1432 1.00271256 462

Live tracking and technical data element details for APSTAR 6D (NORAD 45863). APSTAR 6D can be tracked NOW for your location showing map with azimuth and elevation plus other details from your city location.

Track the satellite on the map from your city or location and see movement details for azimuth, elevation, latitude, longitude, range, height, and movement on the map or in text.







IsCatalogInMostPopularTable: catalog: 45863, numindb: 3
Update: records affected: 1



GetName: 45863 APSTAR 6D

Hit Count: updated at: Fri, 14 Aug 2020 05:46:58 GMT